Location: Smoky Mountain Stargaze
(35.4252°N, 83.3329°W)
Time: 01:06:49
(UTC-04:00)

Amateur Radio Satellites - All Passes

Search period start: 24 May 2015 00:36
Search period end: 25 May 2015 00:36
Location: Smoky Mountain Stargaze, 35.4252°N, 83.3329°W

Satellite Date Start Highest point End Downlink Frequencies (MHz)
Time Altitude Azimuth
ESTCUBE 1 24 May 00:41:41 00:45:51 37° 262° (W) 00:50:01 437.505/2401.250
DANDE 24 May 00:51:12 00:58:23 36° 69° (ENE) 01:04:25 436.750
VELOX 1 24 May 00:54:41 00:57:27 16° 268° (W) 01:00:02 145.980
TISAT 1 24 May 00:55:42 00:59:45 48° 75° (ENE) 01:03:53 437.305
CUBEBUG 1 24 May 01:02:14 01:05:51 25° 265° (W) 01:09:25 437.445
ANTELSAT 24 May 01:14:15 01:17:22 18° 291° (WNW) 01:20:17 437.575/2403.000
BUGSAT 1 24 May 01:15:19 01:19:31 56° 285° (WNW) 01:23:40 437.445
POLYITAN 1 24 May 01:15:39 01:19:37 36° 287° (WNW) 01:23:30 437.675
QB50P1 24 May 01:15:40 01:19:38 37° 287° (WNW) 01:23:32 145.935-145.965
GONETS M04 24 May 01:19:35 01:28:09 54° 78° (ENE) 01:36:39
ITUPSAT 1 24 May 01:42:28 01:46:14 25° 70° (ENE) 01:50:08 437.325
PCSat 24 May 01:46:12 01:51:07 38° 110° (ESE) 01:56:08 145.827
CUSAT 1 24 May 01:46:58 01:54:20 69° 266° (W) 02:00:01 437.405
NANOSAT C BR1 24 May 01:49:27 01:52:12 16° 291° (WNW) 01:54:45 145.865
ISS 24 May 01:49:28 01:52:31 37° 323° (NW) 01:55:35 145.825
BEESAT 24 May 01:52:03 01:56:12 32° 71° (ENE) 02:00:26 436.000
SPROUT 24 May 01:54:54 01:58:26 24° 265° (W) 02:01:55 437.525
QB50P2 24 May 01:55:13 01:57:30 14° 292° (WNW) 01:59:34 145.880/145.840
SWISSCUBE 24 May 01:59:39 02:04:05 42° 73° (ENE) 02:08:35 437.505
O/OREOS (USA 219) 24 May 02:32:14 02:35:56 25° 62° (ENE) 02:39:41 437.305
TISAT 1 24 May 02:34:16 02:35:52 12° 270° (W) 02:37:13 437.305
DANDE 24 May 02:34:26 02:41:41 39° 272° (W) 02:47:29 436.750
Oscar 19 24 May 02:35:17 02:40:08 41° 98° (E) 02:45:00 437.125/150
ITAMSAT 1 24 May 02:43:40 02:45:49 13° 90° (E) 02:48:18 435.822/435.867
KKS-1 24 May 02:53:01 02:56:31 23° 70° (ENE) 03:00:07 437.445
Gurwin Techsat 1B 24 May 02:59:51 03:03:25 19° 92° (E) 03:07:11 435.225
Cosmos 2499 24 May 03:10:59 03:17:46 48° 78° (ENE) 03:24:38 435.465 / 435.565
GONETS M04 24 May 03:17:20 03:24:33 28° 275° (W) 03:31:27
VERMONT LUNAR 24 May 03:19:11 03:22:06 32° 150° (SSE) 03:25:02 437.305
ITUPSAT 1 24 May 03:19:53 03:24:03 29° 264° (W) 03:28:08 437.325
SO-50 24 May 03:23:19 03:24:26 11° 108° (ESE) 03:25:52 436.795
PCSat 24 May 03:30:05 03:34:39 27° 307° (NW) 03:39:10 145.827
BEESAT 24 May 03:30:21 03:34:06 22° 266° (W) 03:37:45 436.000
SWISSCUBE 24 May 03:39:02 03:42:10 17° 268° (W) 03:45:06 437.505
BEESAT 2 24 May 03:49:11 03:51:03 13° 46° (NE) 03:53:05 435.950
STARS 24 May 04:04:41 04:09:07 86° 256° (WSW) 04:13:36 437.465
O/OREOS (USA 219) 24 May 04:11:37 04:15:17 25° 257° (WSW) 04:18:51 437.305
Oscar 19 24 May 04:15:25 04:19:14 21° 292° (WNW) 04:22:53 437.125/150
ITAMSAT 1 24 May 04:20:40 04:25:50 64° 286° (WNW) 04:31:00 435.822/435.867
KKS-1 24 May 04:29:12 04:33:03 27° 264° (W) 04:36:51 437.445
JAS-2 24 May 04:31:36 04:35:34 23° 94° (E) 04:39:45 435.910
Gurwin Techsat 1B 24 May 04:38:36 04:43:41 46° 288° (WNW) 04:48:42 435.225
BEESAT 3 24 May 04:41:22 04:45:22 54° 58° (ENE) 04:49:18 437.485
PHONESAT 2.4 24 May 04:43:48 04:47:06 42° 151° (SSE) 04:50:25 2401.200-2431.200
AIST 2 24 May 04:54:21 04:57:15 18° 49° (NE) 05:00:14 435.215
VERMONT LUNAR 24 May 04:56:07 04:59:15 50° 345° (NNW) 05:02:23 437.305
SO-50 24 May 04:59:47 05:04:25 67° 301° (WNW) 05:09:13 436.795
Cosmos 2499 24 May 05:05:03 05:10:33 24° 273° (W) 05:15:51 435.465 / 435.565
HORYU 2 24 May 05:14:42 05:19:09 77° 102° (ESE) 05:23:34 437.375
AO-7 24 May 05:22:46 05:30:59 59° 102° (ESE) 05:39:13 29.400- 29.500
BEESAT 2 24 May 05:25:31 05:29:32 56° 244° (WSW) 05:33:28 435.950
MOZHAYETS 4 24 May 05:32:57 05:37:32 82° 258° (WSW) 05:42:07
JAS-2 24 May 06:16:12 06:20:51 34° 289° (WNW) 06:25:31 435.910
PHONESAT 2.4 24 May 06:21:51 06:25:13 47° 346° (NNW) 06:28:35 2401.200-2431.200
BEESAT 3 24 May 06:22:14 06:22:55 10° 251° (WSW) 06:23:20 437.485
Cubesat XI-IV 24 May 06:31:06 06:32:26 11° 89° (E) 06:34:11 437.490
AIST 2 24 May 06:32:05 06:36:00 38° 246° (WSW) 06:39:49 435.215
VERMONT LUNAR 24 May 06:33:55 06:36:49 31° 1° (N) 06:39:43 437.305
PRISM 24 May 06:40:26 06:42:49 16° 69° (ENE) 06:45:22 437.425
ISS 24 May 06:45:06 06:45:25 10° 22° (NNE) 06:45:49 145.825
STRAND 1 24 May 07:01:46 07:06:03 29° 70° (ENE) 07:10:26 437.568
CUBESAT XI-V 24 May 07:02:23 07:06:56 68° 76° (ENE) 07:11:32 437.345
Cosmos 2491 24 May 07:03:44 07:11:41 37° 73° (ENE) 07:19:43 435.465 / 435.565
M-CUBED/EXP-1 PRIME 24 May 07:08:36 07:12:16 27° 68° (ENE) 07:15:47 437.505
AO-7 24 May 07:16:24 07:23:22 29° 299° (WNW) 07:30:05 29.400- 29.500
AUBIESAT-1 24 May 07:19:47 07:23:36 31° 69° (ENE) 07:27:13 437.475
CUTE-I 24 May 07:48:12 07:53:34 71° 101° (ESE) 07:58:56 437.470
YUBILEINY 24 May 07:52:50 08:00:30 37° 88° (E) 08:08:20 435.215
PHONESAT 2.4 24 May 08:00:32 08:03:44 34° 3° (N) 08:06:57 2401.200-2431.200
Cubesat XI-IV 24 May 08:07:49 08:13:11 75° 286° (WNW) 08:18:32 437.490
VERMONT LUNAR 24 May 08:11:11 08:14:21 57° 18° (NNE) 08:17:30 437.305
RS-15 24 May 08:12:51 08:17:18 14° 101° (E) 08:22:48 29.354- 29.394
PRISM 24 May 08:14:16 08:18:01 34° 262° (W) 08:21:45 437.425
ISS 24 May 08:19:13 08:22:27 58° 40° (NE) 08:25:40 145.825
AIST 1 24 May 08:19:43 08:22:58 21° 74° (ENE) 08:26:21
STRAND 1 24 May 08:40:50 08:45:14 28° 264° (W) 08:49:32 437.568
M-CUBED/EXP-1 PRIME 24 May 08:43:32 08:47:04 22° 259° (W) 08:50:19 437.505
AUBIESAT-1 24 May 08:55:12 08:58:22 19° 260° (W) 09:01:17 437.475
Cosmos 2491 24 May 09:00:27 09:08:39 43° 271° (W) 09:16:39 435.465 / 435.565
HO-68 24 May 09:21:10 09:27:03 28° 95° (E) 09:33:05 435.675
DOVE 4 24 May 09:26:23 09:30:27 24° 92° (E) 09:34:28 437.250
BRITE-PL 24 May 09:28:12 09:33:52 67° 100° (E) 09:39:16 437.365/2234.400
CUTE-I 24 May 09:30:30 09:33:07 13° 296° (WNW) 09:35:27 437.470
CINEMA 3 24 May 09:30:31 09:31:08 10° 87° (E) 09:32:06 145.822/145.860
PHONESAT 2.4 24 May 09:38:42 09:42:09 71° 18° (NNE) 09:45:37 2401.200-2431.200
CANX-2 24 May 09:39:30 09:43:15 31° 96° (E) 09:47:01 2200.000
CUTE 1.7 + AOD 2 24 May 09:43:33 09:47:18 31° 96° (E) 09:51:04 437.475
GOMX 1 24 May 09:47:09 09:52:32 64° 99° (E) 09:57:38 467.674
VERMONT LUNAR 24 May 09:48:40 09:51:25 27° 212° (SSW) 09:54:11 437.305
YUBILEINY 24 May 09:48:58 09:57:14 43° 285° (WNW) 10:05:22 435.215
AIST 1 24 May 09:56:56 10:00:39 27° 269° (W) 10:04:17
ISS 24 May 09:57:46 09:58:32 11° 232° (SW) 09:59:10 145.825
SEEDS 24 May 10:10:53 10:15:00 56° 100° (E) 10:19:05 437.485
RS-15 24 May 10:17:22 10:28:12 79° 116° (ESE) 10:39:18 29.354- 29.394
COMPASS 1 24 May 10:29:11 10:33:20 75° 100° (E) 10:37:28 437.405
ANTELSAT 24 May 10:33:01 10:36:37 23° 70° (ENE) 10:40:20 437.575/2403.000
PCSat 24 May 10:37:47 10:41:20 18° 49° (NE) 10:45:03 145.827
CUBEBUG 2 24 May 10:40:20 10:44:19 32° 96° (E) 10:48:13 437.445
AAUSAT CUBESAT 2 24 May 10:44:02 10:48:11 84° 284° (WNW) 10:52:19 437.432
ZACube-1 24 May 10:55:48 10:59:33 29° 95° (E) 11:03:16 437.345
NANOSAT C BR1 24 May 11:02:59 11:05:59 19° 70° (ENE) 11:09:07 145.865
DOVE 4 24 May 11:03:39 11:08:15 33° 289° (WNW) 11:12:36 437.250
CINEMA 3 24 May 11:04:13 11:08:57 63° 284° (WNW) 11:13:26 145.822/145.860
Cosmos 2504 24 May 11:05:00 11:13:25 67° 94° (E) 11:21:19 435.465 / 435.565
UKube-1 24 May 11:05:07 11:07:39 16° 92° (E) 11:10:21 .
TIGRISAT 24 May 11:06:17 11:10:50 51° 74° (ENE) 11:15:23 435.000
HO-68 24 May 11:08:12 11:15:02 48° 291° (WNW) 11:21:46 435.675
QB50P2 24 May 11:08:17 11:11:37 23° 71° (ENE) 11:15:05 145.880/145.840
BRITE-PL 24 May 11:08:24 11:11:47 16° 295° (WNW) 11:14:50 437.365/2234.400
DX 1 24 May 11:08:48 11:11:51 19° 94° (E) 11:15:03 434.975-435.025
Oscar 11 24 May 11:15:02 11:19:21 85° 284° (WNW) 11:23:39 145.826/435.025
HUMSAT D 24 May 11:15:44 11:18:51 21° 94° (E) 11:22:02 437.325/437.525
CANX-2 24 May 11:16:04 11:18:59 18° 290° (WNW) 11:21:45 2200.000
PHONESAT 2.4 24 May 11:17:17 11:20:04 22° 214° (SSW) 11:22:50 2401.200-2431.200
CUTE 1.7 + AOD 2 24 May 11:20:06 11:23:01 18° 290° (WNW) 11:25:47 437.475
POPSAT HIP 1 24 May 11:20:54 11:24:38 31° 72° (ENE) 11:28:29 437.405
50 SAT 24 May 11:21:22 11:22:42 12° 91° (E) 11:24:16 437.505
UNISAT 6 24 May 11:25:09 11:29:52 86° 80° (E) 11:34:34 437.425
DUCHIFAT 1 24 May 11:25:19 11:29:09 34° 73° (ENE) 11:33:03 145.980
GOMX 1 24 May 11:27:03 11:30:04 15° 295° (WNW) 11:32:47 467.674
DELFI C3 24 May 11:32:07 11:36:07 70° 284° (WNW) 11:40:06 145.870
UWE-3 24 May 11:33:57 11:38:22 73° 284° (WNW) 11:42:37 435.000/436.395/437.385
AISAT 24 May 11:40:59 11:44:28 22° 94° (E) 11:48:02 437.250
SEEDS 24 May 11:49:29 11:50:22 10° 293° (WNW) 11:51:00 437.485
FUNcube-1 24 May 11:52:25 11:56:41 57° 285° (WNW) 12:00:49 145.935
BUGSAT 1 24 May 12:02:02 12:06:06 64° 76° (ENE) 12:10:15 437.445
QB50P1 24 May 12:04:44 12:09:00 75° 258° (WSW) 12:13:18 145.935-145.965
POLYITAN 1 24 May 12:04:58 12:09:16 74° 258° (WSW) 12:13:35 437.675
ANTELSAT 24 May 12:09:03 12:13:16 31° 264° (W) 12:17:23 437.575/2403.000
CUBEBUG 2 24 May 12:17:32 12:20:48 19° 291° (WNW) 12:23:51 437.445
PCSat 24 May 12:19:54 12:25:16 62° 247° (WSW) 12:30:34 145.827
ZACube-1 24 May 12:32:31 12:35:45 20° 290° (WNW) 12:38:49 437.345
RS-15 24 May 12:32:38 12:41:57 30° 321° (NW) 12:51:15 29.354- 29.394
JUGNU 24 May 12:33:29 12:36:21 14° 171° (S) 12:39:16 437.505
ESTCUBE 1 24 May 12:36:59 12:41:26 55° 100° (E) 12:45:53 437.505/2401.250
NANOSAT C BR1 24 May 12:37:51 12:41:39 30° 264° (W) 12:45:24 145.865
UKube-1 24 May 12:39:55 12:43:58 38° 287° (WNW) 12:47:58 .
QB50P2 24 May 12:43:51 12:47:26 25° 265° (W) 12:50:57 145.880/145.840
DX 1 24 May 12:44:15 12:48:11 32° 288° (WNW) 12:52:04 434.975-435.025
TIGRISAT 24 May 12:45:25 12:47:54 14° 269° (W) 12:50:07 435.000
VELOX 1 24 May 12:46:09 12:50:36 65° 285° (WNW) 12:55:01 145.980
HUMSAT D 24 May 12:51:06 12:54:35 25° 289° (WNW) 12:57:58 437.325/437.525
CUBEBUG 1 24 May 12:53:07 12:57:34 74° 102° (ESE) 13:02:00 437.445
50 SAT 24 May 12:54:02 12:57:40 38° 286° (WNW) 13:01:14 437.505
POPSAT HIP 1 24 May 12:57:33 13:00:36 18° 267° (W) 13:03:32 437.405
Cosmos 2504 24 May 13:01:04 13:07:27 22° 291° (WNW) 13:13:11 435.465 / 435.565
DUCHIFAT 1 24 May 13:02:16 13:05:06 17° 268° (W) 13:07:46 145.980
CUSAT 1 24 May 13:06:21 13:11:39 25° 85° (E) 13:17:56 437.405
AISAT 24 May 13:17:10 13:21:03 28° 289° (WNW) 13:24:51 437.250
SO-50 24 May 13:34:12 13:39:01 48° 56° (NE) 13:43:44 436.795
SPROUT 24 May 13:43:38 13:47:58 74° 101° (ESE) 13:52:17 437.525
SRMSAT 24 May 13:45:41 13:47:44 12° 168° (SSE) 13:49:52 437.500
Oscar 19 24 May 13:49:00 13:53:54 45° 73° (ENE) 13:58:52 437.125/150
DANDE 24 May 13:56:04 14:02:13 47° 90° (E) 14:09:51 436.750
ITAMSAT 1 24 May 13:58:46 14:01:38 16° 66° (ENE) 14:04:45 435.822/435.867
SWISSCUBE 24 May 14:04:36 14:06:53 14° 91° (E) 14:09:26 437.505
ESTCUBE 1 24 May 14:15:50 14:17:53 13° 293° (WNW) 14:19:43 437.505/2401.250
GONETS M04 24 May 14:16:04 14:24:48 69° 93° (E) 14:33:36
Gurwin Techsat 1B 24 May 14:18:01 14:22:01 23° 68° (ENE) 14:26:11 435.225
TISAT 1 24 May 14:18:43 14:22:56 58° 285° (WNW) 14:27:07 437.305
JUGNU 24 May 14:20:57 14:24:39 17° 180° (S) 14:28:19 437.505
AO-7 24 May 14:33:03 14:34:54 11° 51° (NE) 14:37:22 29.400- 29.500
CUSAT 1 24 May 14:46:57 14:53:42 58° 284° (WNW) 15:01:43 437.405
RS-15 24 May 14:55:23 14:59:52 13° 355° (N) 15:04:19 29.354- 29.394
SO-50 24 May 15:15:52 15:19:13 18° 250° (WSW) 15:22:19 436.795
ITUPSAT 1 24 May 15:22:42 15:27:30 89° 272° (W) 15:32:18 437.325
Oscar 19 24 May 15:29:50 15:33:31 19° 268° (W) 15:37:00 437.125/150
BEESAT 24 May 15:32:20 15:37:06 69° 284° (WNW) 15:41:50 436.000
SRMSAT 24 May 15:32:30 15:36:10 17° 177° (S) 15:39:51 437.500
ITAMSAT 1 24 May 15:35:39 15:40:43 57° 259° (W) 15:45:49 435.822/435.867
DANDE 24 May 15:39:48 15:45:48 31° 292° (WNW) 15:52:44 436.750
SWISSCUBE 24 May 15:40:28 15:45:06 51° 286° (WNW) 15:49:43 437.505
Cosmos 2499 24 May 15:43:03 15:50:48 46° 91° (E) 15:58:08 435.465 / 435.565
Gurwin Techsat 1B 24 May 15:56:50 16:01:47 39° 262° (W) 16:06:43 435.225
STARS 24 May 15:58:17 16:01:40 22° 94° (E) 16:05:08 437.465
HORYU 2 24 May 16:09:50 16:14:08 47° 74° (ENE) 16:18:28 437.375
JUGNU 24 May 16:10:08 16:12:55 13° 190° (S) 16:15:37 437.505
GONETS M04 24 May 16:15:46 16:22:33 23° 293° (WNW) 16:28:56
AO-7 24 May 16:18:10 16:26:14 61° 69° (ENE) 16:34:24 29.400- 29.500
KKS-1 24 May 16:22:33 16:27:03 72° 102° (ESE) 16:31:30 437.445
JAS-2 24 May 16:23:07 16:30:03 67° 75° (ENE) 16:36:12 435.910
O/OREOS (USA 219) 24 May 16:40:48 16:45:12 52° 106° (ESE) 16:49:36 437.305
RS-15 24 May 17:10:30 17:18:39 22° 31° (NNE) 17:27:28 29.354- 29.394
SRMSAT 24 May 17:21:16 17:24:37 15° 187° (S) 17:27:55 437.500
MOZHAYETS 4 24 May 17:31:32 17:35:29 29° 96° (E) 17:39:29
STARS 24 May 17:34:18 17:38:08 28° 289° (WNW) 17:41:51 437.465
Cosmos 2499 24 May 17:36:55 17:44:08 31° 286° (WNW) 17:50:45 435.465 / 435.565
HORYU 2 24 May 17:48:50 17:51:06 13° 269° (W) 17:53:06 437.375
Cubesat XI-IV 24 May 17:49:39 17:52:30 15° 65° (ENE) 17:55:37 437.490
YUBILEINY 24 May 18:08:35 18:12:24 14° 61° (ENE) 18:16:54 435.215
JAS-2 24 May 18:10:53 18:15:29 18° 268° (W) 18:19:27 435.910
AO-7 24 May 18:12:49 18:19:34 26° 266° (W) 18:26:03 29.400- 29.500
O/OREOS (USA 219) 24 May 18:22:38 18:25:01 14° 304° (WNW) 18:27:10 437.305
BEESAT 3 24 May 18:32:05 18:35:06 21° 111° (ESE) 18:38:14 437.485
CUBESAT XI-V 24 May 19:02:50 19:06:24 22° 93° (E) 19:10:05 437.345
CUTE-I 24 May 19:07:03 19:12:21 86° 79° (E) 19:17:42 437.470
MOZHAYETS 4 24 May 19:08:59 19:12:35 23° 290° (WNW) 19:16:04
BEESAT 2 24 May 19:16:02 19:20:01 55° 116° (ESE) 19:24:05 435.950
STRAND 1 24 May 19:17:07 19:18:53 12° 89° (E) 19:21:00 437.568
RS-15 24 May 19:22:08 19:33:48 71° 57° (ENE) 19:45:57 29.354- 29.394
Cubesat XI-IV 24 May 19:26:55 19:32:09 61° 259° (W) 19:37:26 437.490
HO-68 24 May 19:48:48 19:52:41 16° 59° (ENE) 19:56:56 435.675
PRISM 24 May 19:59:16 20:03:07 37° 98° (E) 20:07:01 437.425
Cosmos 2491 24 May 20:00:41 20:08:52 47° 90° (E) 20:17:14 435.465 / 435.565
YUBILEINY 24 May 20:02:08 20:10:52 83° 82° (E) 20:19:35 435.215
BEESAT 3 24 May 20:09:20 20:12:56 29° 306° (NW) 20:16:32 437.485
AIST 2 24 May 20:26:27 20:30:42 88° 298° (WNW) 20:35:00 435.215
M-CUBED/EXP-1 PRIME 24 May 20:27:21 20:30:09 26° 102° (ESE) 20:33:00 437.505
DOVE 4 24 May 20:29:05 20:32:29 19° 67° (ENE) 20:36:11 437.250
CANX-2 24 May 20:30:30 20:33:09 17° 70° (ENE) 20:35:56 2200.000
CUTE 1.7 + AOD 2 24 May 20:34:29 20:37:08 17° 69° (ENE) 20:39:54 437.475
BRITE-PL 24 May 20:35:34 20:40:20 52° 74° (ENE) 20:45:31 437.365/2234.400
AUBIESAT-1 24 May 20:37:57 20:40:54 31° 103° (ESE) 20:43:54 437.475
CUBESAT XI-V 24 May 20:39:43 20:43:54 32° 288° (WNW) 20:48:00 437.345
AIST 1 24 May 20:47:24 20:49:26 14° 88° (E) 20:51:41
GOMX 1 24 May 20:51:38 20:56:24 48° 73° (ENE) 21:01:32 467.674
STRAND 1 24 May 20:53:31 20:58:38 66° 285° (WNW) 21:03:44 437.568
BEESAT 2 24 May 20:56:20 20:58:30 13° 314° (NW) 21:00:31 435.950
SEEDS 24 May 21:00:19 21:03:50 26° 72° (ENE) 21:07:25 437.485
Cosmos 2504 24 May 21:03:29 21:07:30 16° 66° (ENE) 21:11:55 435.465 / 435.565
COMPASS 1 24 May 21:17:32 21:21:17 33° 73° (ENE) 21:25:05 437.405
AAUSAT CUBESAT 2 24 May 21:31:44 21:35:40 42° 74° (ENE) 21:39:38 437.432
HO-68 24 May 21:32:25 21:39:37 87° 255° (WSW) 21:46:51 435.675
CUBEBUG 2 24 May 21:35:42 21:39:14 22° 70° (ENE) 21:42:53 437.445
RS-15 24 May 21:35:47 21:45:36 30° 254° (WSW) 21:55:12 29.354- 29.394
PRISM 24 May 21:35:49 21:38:18 15° 292° (WNW) 21:40:37 437.425
ZACube-1 24 May 21:49:18 21:52:21 18° 69° (ENE) 21:55:34 437.345
Cosmos 2491 24 May 21:58:10 22:06:00 34° 288° (WNW) 22:13:41 435.465 / 435.565
YUBILEINY 24 May 22:01:33 22:06:47 17° 278° (W) 22:11:26 435.215
CINEMA 3 24 May 22:01:50 22:06:46 83° 79° (E) 22:11:51 145.822/145.860
DX 1 24 May 22:03:11 22:04:43 12° 66° (ENE) 22:06:29 434.975-435.025
M-CUBED/EXP-1 PRIME 24 May 22:03:15 22:04:51 13° 295° (WNW) 22:06:18 437.505
CANX-2 24 May 22:04:53 22:08:50 35° 263° (W) 22:12:45 2200.000
DOVE 4 24 May 22:05:03 22:09:52 46° 263° (W) 22:14:53 437.250
HUMSAT D 24 May 22:06:25 22:07:45 11° 67° (ENE) 22:09:19 437.325/437.525
Oscar 11 24 May 22:06:38 22:10:48 49° 75° (ENE) 22:15:00 145.826/435.025
CUTE 1.7 + AOD 2 24 May 22:08:51 22:12:48 35° 263° (W) 22:16:42 437.475
AUBIESAT-1 24 May 22:14:30 22:15:29 11° 296° (WNW) 22:16:18 437.475
BRITE-PL 24 May 22:16:17 22:19:21 15° 272° (W) 22:22:15 437.365/2234.400
DELFI C3 24 May 22:16:21 22:20:11 43° 74° (ENE) 22:24:02 145.870
AIST 1 24 May 22:22:49 22:26:46 37° 281° (WNW) 22:30:44
UWE-3 24 May 22:27:19 22:31:56 62° 75° (ENE) 22:36:35 435.000/436.395/437.385
GOMX 1 24 May 22:31:32 22:34:55 17° 271° (W) 22:38:10 467.674
SEEDS 24 May 22:36:20 22:39:37 21° 266° (W) 22:42:48 437.485
AISAT 24 May 22:37:01 22:39:23 15° 67° (ENE) 22:41:57 437.250
FUNcube-1 24 May 22:44:20 22:48:55 74° 76° (ENE) 22:53:31 145.935
COMPASS 1 24 May 22:54:21 22:57:06 16° 268° (W) 22:59:40 437.405
Cosmos 2504 24 May 22:54:37 23:01:48 73° 266° (W) 23:08:58 435.465 / 435.565
TIGRISAT 24 May 23:03:23 23:05:04 12° 90° (E) 23:06:59 435.000
AAUSAT CUBESAT 2 24 May 23:09:32 23:11:32 13° 269° (W) 23:13:19 437.432
CUBEBUG 2 24 May 23:11:22 23:15:42 34° 264° (W) 23:20:02 437.445
UNISAT 6 24 May 23:21:20 23:24:39 21° 94° (E) 23:28:01 437.425
ZACube-1 24 May 23:24:09 23:28:27 38° 263° (W) 23:32:43 437.345
HO-68 24 May 23:25:22 23:28:25 12° 272° (W) 23:30:52 435.675
UKube-1 24 May 23:31:14 23:35:31 68° 258° (WSW) 23:39:50 .
ESTCUBE 1 24 May 23:33:50 23:37:52 34° 72° (ENE) 23:41:57 437.505/2401.250
50 SAT 24 May 23:35:03 23:39:03 73° 77° (ENE) 23:43:03 437.505
DX 1 24 May 23:36:18 23:40:32 54° 260° (W) 23:44:50 434.975-435.025
HUMSAT D 24 May 23:38:49 23:43:04 55° 260° (W) 23:47:20 437.325/437.525
VELOX 1 24 May 23:40:27 23:44:51 75° 77° (ENE) 23:49:18 145.980
Oscar 11 24 May 23:45:34 23:47:19 12° 270° (W) 23:48:50 145.826/435.025
CUBEBUG 1 24 May 23:46:18 23:50:22 40° 73° (ENE) 23:54:29 437.445
BUGSAT 1 24 May 23:49:19 23:50:57 12° 90° (E) 23:52:51 437.445
CUSAT 1 24 May 23:49:51 23:53:41 15° 59° (ENE) 23:57:28 437.405
QB50P1 24 May 23:53:41 23:56:58 22° 94° (E) 00:00:19 145.935-145.965
DELFI C3 24 May 23:54:08 23:55:35 11° 270° (W) 23:56:46 145.870
POLYITAN 1 24 May 23:54:13 23:57:34 22° 94° (E) 00:00:58 437.675
ANTELSAT 25 May 00:03:47 00:08:10 70° 101° (E) 00:12:26 437.575/2403.000
UWE-3 25 May 00:07:30 00:08:55 11° 271° (W) 00:10:01 435.000/436.395/437.385
AISAT 25 May 00:11:22 00:15:37 45° 261° (W) 00:19:54 437.250
NANOSAT C BR1 25 May 00:25:17 00:29:28 52° 100° (E) 00:33:37 145.865
